Regional Weather Roundup
Issued by NWS

Home | Current Version | Previous Version | Graphics & Text | Print | Product List | Glossary On
Versions: 1 2 3 4 5 6 7 8 9 10 11 12 13 14 15 16 17 18 19 20 21 22 23 24 25 26 27 28 29 30 31 32 33 34 35 36 37 38 39 40 41 42 43 44 45 46 47 48 49 50
179
ASUS45 KBOU 271907
RWRCO

WEATHER ROUNDUP FOR COLORADO
NATIONAL WEATHER SERVICE DENVER/BOULDER CO
100 PM MDT THU JUL 27 2017

NOTE: "FAIR" INDICATES FEW OR NO CLOUDS BELOW 12000 FEET WITH NO
SIGNIFICANT WEATHER AND/OR OBSTRUCTIONS TO VISIBILITY.

COZ001>005-013-030-031-272000-
...NORTHWEST COLORADO...

CITY           SKY/WX    TMP DP  RH WIND       PRES   REMARKS
CRAIG          FAIR      83  50  31 W6        30.26F
HAYDEN         FAIR      79  50  36 NW9       30.29F
MEEKER         FAIR      83  52  34 S7        30.27F
RABBIT EARS PA FAIR      63  52  67 NW7       30.60F
STEAMBOAT SPGS FAIR      78  51  38 SW9       30.31F
WALDEN         PTSUNNY   72  48  43 CALM      30.41F
$$

COZ006>008-011-272000-
...WEST CENTRAL VALLEYS...

CITY           SKY/WX    TMP DP  RH WIND       PRES   REMARKS
GRAND JUNCTION FAIR      90  52  27 W5        30.13F
MONTROSE       FAIR      85  56  37 N8        30.21F
EAGLE          PTSUNNY   81  52  36 NW9       30.28F
RIFLE          FAIR      87  54  32 NW5       30.18F
DELTA          FAIR      90  52  27 SW3       30.16F
NUCLA          FAIR      88  41  19 CALM      30.25F
$$

COZ017>023-064>068-272000-
...SOUTHWEST COLORADO...

CITY           SKY/WX    TMP DP  RH WIND       PRES   REMARKS
DURANGO        FAIR      83  48  29 W9        30.26F
CORTEZ         FAIR      89  49  25 SE6       30.20F
PAGOSA SPRINGS FAIR      78  45  30 N12G20    30.36F
TELLURIDE      FAIR      73  50  44 W9        30.48F THUNDER
WOLF CREEK PAS PTSUNNY   59  46  63 S14G22    30.73F
$$

COZ009-010-012-014-032>034-037-058>063-272000-
...CENTRAL COLORADO...

CITY           SKY/WX    TMP DP  RH WIND       PRES   REMARKS
ASPEN          FAIR      82  41  23 N9G17     30.35F
BUENA VISTA    FAIR      77  42  29 CALM      30.35F
COPPER MTN     FAIR      64  34  32 NW8G18    30.72S
BERTHOUD PASS  FAIR      54  43  66 NW8G17    30.75S
COTTONWOOD PAS FAIR      77  39  25 E5        30.52F
GUNNISON       FAIR      79  46  31 VRB6      30.35F
KREMMLING      FAIR      79  59  50 CALM      30.36F
LEADVILLE      FAIR      69  36  29 VRB6G21   30.48F
MONARCH PASS   FAIR      63  43  48 SW15G21   30.80F
SALIDA         PTSUNNY   81  51  35 N7        30.39F
SUNLIGHT       FAIR      63  48  59 W7        30.65F
WILKERSON PASS FAIR      63  45  51 CALM      30.67F
$$

COZ069>075-272000-
...SAN LUIS VALLEY/SANGRE DE CRISTO MOUNTAINS...

CITY           SKY/WX    TMP DP  RH WIND       PRES   REMARKS
ALAMOSA        FAIR      77  54  44 CALM      30.35F
DEL NORTE      FAIR      76  53  43 SE9       30.38F
LA VETA PASS   NOT AVBL
SAGUACHE         N/A    N/A N/A N/A MISG        N/A
$$

COZ035-036-038>040-272000-
...NORTHERN COLORADO FRONT RANGE...

CITY           SKY/WX    TMP DP  RH WIND       PRES   REMARKS
DENVER INTL AP PTSUNNY   82  57  42 E9G17     30.21F
DMNS CITY PARK   N/A     83  58  41 NE13      30.20F
AURORA         PTSUNNY   81  58  46 SE8       30.23F
FRONT RANGE AP FAIR      82  55  39 SE7       30.24F
ERIE MUNI ARPT FAIR      81  56  41 E7        30.21F
BOULDER MUN AP FAIR      79  57  47 CALM      30.22F
CENTENNIAL     FAIR      80  57  45 CALM      30.24F
BROOMFIELD     FAIR      79  59  50 E7        30.25F
FORT COLLINS   FAIR      80  63  55 VRB3      30.21F
LONGMONT       FAIR      82  59  45 CALM      30.22F
$$

COZ041-046-047-076>085-087-088-272000-
...PIKES PEAK/PALMER DIVIDE AND SOUTHERN FOOTHILLS...

CITY           SKY/WX    TMP DP  RH WIND       PRES   REMARKS
COLO. SPRINGS  PTSUNNY   74  61  63 S9        30.31F
A. F. ACADEMY  PTSUNNY   71  58  62 SE7       30.31F
SCHRIEVER AFB  PTSUNNY   71  59  65 SE10      30.31F
CHEYENNE MTN   FAIR      69  59  68 S16G22    30.29S
ELLICOTT       PTSUNNY  N/A N/A N/A S10G17    30.29F
FALCON           N/A     71  57  60 S10G20    30.36S
FORT CARSON    CLOUDY    74  59  58 S8        30.27F
LIMON          PTSUNNY   74  63  68 S7        30.26F
MONUMENT HILL  FAIR      70  57  64 SE10      30.36F
CANON CITY     SUNNY     81  63  54 E12       30.24F
WALSENBURG     FAIR      82  59  44 CALM      30.27F
TRINIDAD       FAIR      79  54  41 E5        30.25F
$$

COZ042>045-048>051-090-091-272000-
...NORTHEAST COLORADO...

CITY           SKY/WX    TMP DP  RH WIND       PRES   REMARKS
GREELEY ARPT   FAIR      85  63  47 S10       30.19F
AKRON          FAIR      81  59  47 S7        30.21
BURLINGTON     CLOUDY    76  64  66 E8        30.21F
WRAY           NOT AVBL
YUMA           CLOUDY    77  57  50 SE7       30.19F
STERLING       FAIR      82  61  47 S8G16     30.16F
HOLYOKE        FAIR      81  66  61 S9        30.18F
FORT MORGAN    FAIR      85  57  38 SE12      30.19F
$$

COZ086-089-092>099-272000-
...SOUTHEAST COLORADO...

CITY           SKY/WX    TMP DP  RH WIND       PRES   REMARKS
PUEBLO         FAIR      80  63  55 SE12G17   30.20F
LA JUNTA       FAIR      79  66  64 SE8       30.19F
LAMAR          PTSUNNY   74  68  81 E12       30.16F
SPRINGFIELD      N/A     72  67  84 E15       30.20S
$$




USA.gov is the U.S. government's official web portal to all federal, state and local government web resources and services.